Location: Anuling
(14.1239°N, 120.8922°E)
Time: 14:45:18
(UTC+00:00)

Cosmos 2341 Rocket - Visible Passes

Search period start: 19 April 2026 00:00
Search period end: 29 April 2026 00:00
Orbit: 968 x 1003 km, 82.9° (Epoch: 19 April)

Date Brightness Start Highest point End Pass type
(mag) Time Alt. Az. Time Alt. Az. Time Alt. Az.
19 Apr 5.2 10:24:54 10° SE 10:29:07 19° E 10:33:21 10° NE visible
19 Apr 5.4 12:08:44 10° SSW 12:14:18 35° W 12:19:56 10° NNW visible
20 Apr 4.3 10:51:22 10° SSE 10:57:13 45° E 11:03:06 10° NNE visible
20 Apr 6.6 12:39:23 10° WSW 12:42:43 15° W 12:46:06 10° NW visible
21 Apr 4.1 11:19:13 10° S 11:25:25 81° W 11:31:42 10° N visible
22 Apr 5.5 11:48:09 10° SSW 11:53:44 35° W 11:59:22 10° NNW visible
23 Apr 4.3 10:30:47 10° SSE 10:36:39 45° E 10:42:33 10° NNE visible
23 Apr 6.8 12:18:48 10° WSW 12:22:09 15° W 12:25:32 10° NW visible
24 Apr 4.1 10:58:38 10° S 11:04:51 81° W 11:11:08 10° N visible
25 Apr 5.6 11:27:34 10° SSW 11:33:09 35° W 11:38:48 10° NNW visible
26 Apr 6.8 11:58:13 10° WSW 12:01:35 15° W 12:04:59 10° NW visible
27 Apr 4.2 10:38:03 10° S 10:44:17 81° W 10:50:34 10° N visible
28 Apr 5.7 11:06:59 10° SSW 11:12:35 35° W 11:18:15 10° NNW visible
